EW8310 Weather Reports


Display with metric or nautical units.
time (UTC)temp
F
wind
direction
speed
MPH
gust
MPH
rain 1hr
in
rain 24hr
in
rain mn
in
humidity
%
barometer
mb
20260509053427 77 34 0.0 3.0 0.00 0.00 0.00 24 1007.4
20260509052927 77 16 1.0 3.0 0.00 0.00 0.00 24 1007.4
20260509052653 78 51 0.0 2.0 0.00 0.00 0.00 24 1007.4
20260509051927 79 32 0.0 3.0 0.00 0.00 0.00 21 1007.4
20260509051427 80 17 0.0 4.0 0.00 0.00 0.00 21 1007.4
20260509050926 80 261 1.0 4.0 0.00 0.00 0.00 18 1007.4
20260509050427 78 336 0.0 1.0 0.00 0.00 0.00 23 1007.4
20260509050413 79 17 0.0 2.0 0.00 0.00 0.00 23 1007.4
20260509045427 80 341 0.0 3.0 0.00 0.00 0.00 20 1007.3
20260509044927 81 16 0.0 10.0 0.00 0.00 0.00 20 1007.4
20260509044427 83 66 2.0 10.0 0.00 0.00 0.00 18 1007.3
20260509043927 82 279 4.0 11.0 0.00 0.00 0.00 17 1007.3
20260509043425 83 47 2.0 11.0 0.00 0.00 0.00 18 1007.2
20260509042926 81 321 4.0 9.0 0.00 0.00 0.00 19 1007.1
20260509042426 81 0 0.0 5.0 0.00 0.00 0.00 20 1007.1
20260509041926 80 312 2.0 5.0 0.00 0.00 0.00 20 1007.1
20260509041426 80 337 0.0 1.0 0.00 0.00 0.00 20 1007.0
20260509041154 80 302 0.0 3.0 0.00 0.00 0.00 21 1007.0
20260509040425 81 331 1.0 3.0 0.00 0.00 0.00 19 1007.0
20260509040145 82 11 0.0 5.0 0.00 0.00 0.00 18 1006.9
20260509035426 83 329 0.0 5.0 0.00 0.00 0.00 17 1006.9
20260509034925 83 296 3.0 5.0 0.00 0.00 0.00 17 1006.8
20260509034424 82 310 1.0 4.0 0.00 0.00 0.00 17 1006.8
20260509033925 83 299 1.0 5.0 0.00 0.00 0.00 18 1006.6
20260509033425 83 300 0.0 5.0 0.00 0.00 0.00 17 1006.8
20260509032925 83 276 3.0 5.0 0.00 0.00 0.00 16 1006.6
20260509032425 83 314 1.0 5.0 0.00 0.00 0.00 17 1006.6
20260509032145 83 288 0.0 9.0 0.00 0.00 0.00 17 1006.5
20260509031640 83 290 4.0 9.0 0.00 0.00 0.00 17 1006.5
20260509030923 82 278 0.0 4.0 0.00 0.00 0.00 18 1006.3
20260509030423 83 303 0.0 5.0 0.00 0.00 0.00 17 1006.4
20260509030143 82 272 3.0 5.0 0.00 0.00 0.00 16 1006.3
20260509025907 82 285 0.0 0.0 0.00 0.00 0.00 18 1006.2
20260509024923 82 293 0.0 1.0 0.00 0.00 0.00 17 1006.2
20260509024424 83 313 0.0 4.0 0.00 0.00 0.00 17 1006.2
20260509024141 83 305 1.0 4.0 0.00 0.00 0.00 16 1006.1
20260509023648 84 350 0.0 4.0 0.00 0.00 0.00 15 1006.0
20260509022923 84 282 0.0 6.0 0.00 0.00 0.00 15 1006.0
20260509022423 84 292 1.0 6.0 0.00 0.00 0.00 15 1005.9
20260509021923 84 330 1.0 5.0 0.00 0.00 0.00 15 1005.9
20260509021647 85 292 0.0 0.0 0.00 0.00 0.00 15 1005.9
20260509020923 86 279 0.0 3.0 0.00 0.00 0.00 14 1005.7
20260509020423 86 292 0.0 6.0 0.00 0.00 0.00 13 1005.7
20260509020139 87 310 2.0 6.0 0.00 0.00 0.00 13 1005.7
20260509015644 87 307 0.0 7.0 0.00 0.00 0.00 13 1005.7
20260509014922 88 341 3.0 7.0 0.00 0.00 0.00 12 1005.6
20260509014642 88 334 2.0 13.0 0.00 0.00 0.00 12 1005.5
20260509013921 88 302 5.0 13.0 0.00 0.00 0.00 12 1005.5
20260509013422 89 305 5.0 13.0 0.00 0.00 0.00 12 1005.3
20260509012922 89 289 5.0 14.0 0.00 0.00 0.00 11 1005.3
20260509012645 89 298 6.0 14.0 0.00 0.00 0.00 11 1005.3
20260509011922 89 281 6.0 15.0 0.00 0.00 0.00 11 1005.3
20260509011422 89 261 4.0 15.0 0.00 0.00 0.00 11 1005.2
20260509010922 90 290 7.0 13.0 0.00 0.00 0.00 11 1005.5
20260509010418 90 233 5.0 13.0 0.00 0.00 0.00 11 1005.3
20260509005921 90 295 4.0 15.0 0.00 0.00 0.00 12 1005.3
20260509005644 90 299 8.0 15.0 0.00 0.00 0.00 11 1005.5
20260509004922 90 226 9.0 15.0 0.00 0.00 0.00 11 1005.5
20260509004647 90 248 9.0 14.0 0.00 0.00 0.00 11 1005.5
20260509003921 91 268 5.0 13.0 0.00 0.00 0.00 11 1005.5
20260509003421 91 298 8.0 16.0 0.00 0.00 0.00 11 1005.5
20260509002920 90 255 5.0 16.0 0.00 0.00 0.00 11 1005.5
20260509002905 91 299 6.0 17.0 0.00 0.00 0.00 11 1005.5
20260509001921 91 298 10.0 17.0 0.00 0.00 0.00 11 1005.5
20260509001420 91 245 6.0 14.0 0.00 0.00 0.00 11 1005.5
20260509000920 92 265 7.0 14.0 0.00 0.00 0.00 11 1005.6
20260509000420 91 219 4.0 11.0 0.00 0.00 0.00 11 1005.6
20260508235921 91 262 2.0 14.0 0.00 0.00 0.00 11 1005.5
20260508235420 91 278 7.0 14.0 0.00 0.00 0.00 11 1005.6
20260508234920 91 279 9.0 14.0 0.00 0.00 0.00 11 1005.5
20260508234419 91 298 7.0 13.0 0.00 0.00 0.00 11 1005.6
20260508233916 91 303 7.0 16.0 0.00 0.00 0.00 11 1005.5
20260508233419 91 305 8.0 16.0 0.00 0.00 0.00 11 1005.6
20260508232919 91 317 8.0 16.0 0.00 0.00 0.00 11 1005.6
20260508232419 91 331 9.0 19.0 0.00 0.00 0.00 11 1005.7
20260508231919 91 305 9.0 19.0 0.00 0.00 0.00 11 1005.6
20260508231419 91 276 9.0 18.0 0.00 0.00 0.00 11 1005.6
20260508231143 91 309 7.0 18.0 0.00 0.00 0.00 12 1005.6
20260508230419 91 337 7.0 16.0 0.00 0.00 0.00 11 1005.7
20260508225914 91 283 11.0 17.0 0.00 0.00 0.00 12 1005.8
20260508225418 92 261 10.0 17.0 0.00 0.00 0.00 11 1005.7
20260508224918 92 268 9.0 16.0 0.00 0.00 0.00 12 1005.7
20260508224419 92 283 7.0 16.0 0.00 0.00 0.00 12 1005.8
20260508223918 92 314 9.0 16.0 0.00 0.00 0.00 12 1005.9
20260508223418 92 275 8.0 15.0 0.00 0.00 0.00 12 1005.9
20260508222918 91 347 8.0 16.0 0.00 0.00 0.00 12 1005.9
20260508222645 92 288 8.0 16.0 0.00 0.00 0.00 12 1006.1
20260508221918 92 295 3.0 11.0 0.00 0.00 0.00 13 1006.1
20260508221417 92 285 5.0 14.0 0.00 0.00 0.00 12 1006.2
20260508221138 91 310 7.0 14.0 0.00 0.00 0.00 13 1006.3
20260508220416 91 310 8.0 16.0 0.00 0.00 0.00 13 1006.4
20260508215917 91 296 8.0 16.0 0.00 0.00 0.00 13 1006.4
20260508215859 91 295 9.0 15.0 0.00 0.00 0.00 13 1006.5
20260508214918 92 244 4.0 15.0 0.00 0.00 0.00 13 1006.5
20260508214902 91 268 7.0 13.0 0.00 0.00 0.00 13 1006.5
20260508213917 91 312 7.0 13.0 0.00 0.00 0.00 14 1006.6
20260508213412 92 271 5.0 11.0 0.00 0.00 0.00 14 1006.8
20260508212912 91 327 6.0 18.0 0.00 0.00 0.00 14 1006.9
20260508212416 91 288 5.0 18.0 0.00 0.00 0.00 14 1006.9
20260508211916 91 244 6.0 17.0 0.00 0.00 0.00 14 1007.0
20260508211416 90 251 9.0 19.0 0.00 0.00 0.00 14 1007.0
20260508210916 90 261 9.0 19.0 0.00 0.00 0.00 14 1007.1
20260508210415 91 217 9.0 15.0 0.00 0.00 0.00 14 1007.0
20260508205916 91 165 4.0 21.0 0.00 0.00 0.00 14 1007.1
20260508205411 90 257 9.0 21.0 0.00 0.00 0.00 14 1007.2
20260508204912 90 295 8.0 20.0 0.00 0.00 0.00 14 1007.3
20260508204415 91 24 10.0 16.0 0.00 0.00 0.00 15 1007.3
20260508203915 90 276 8.0 14.0 0.00 0.00 0.00 15 1007.4
20260508203415 90 213 7.0 16.0 0.00 0.00 0.00 15 1007.3
20260508202915 90 290 6.0 16.0 0.00 0.00 0.00 15 1007.4
20260508202415 90 266 6.0 17.0 0.00 0.00 0.00 15 1007.5
20260508201915 89 220 10.0 17.0 0.00 0.00 0.00 15 1007.7
20260508201636 89 300 11.0 17.0 0.00 0.00 0.00 15 1007.7
20260508200910 89 257 10.0 19.0 0.00 0.00 0.00 15 1007.6
20260508200410 90 320 9.0 19.0 0.00 0.00 0.00 15 1007.6
20260508195914 90 351 6.0 15.0 0.00 0.00 0.00 15 1007.7
20260508195414 89 282 9.0 15.0 0.00 0.00 0.00 15 1007.8
20260508195353 90 285 8.0 19.0 0.00 0.00 0.00 15 1007.8
20260508194414 89 247 7.0 19.0 0.00 0.00 0.00 15 1007.9
20260508193914 89 323 7.0 15.0 0.00 0.00 0.00 15 1007.9
20260508193638 90 261 4.0 14.0 0.00 0.00 0.00 15 1007.8
20260508192909 90 202 4.0 14.0 0.00 0.00 0.00 15 1008.1
20260508192410 89 274 6.0 13.0 0.00 0.00 0.00 15 1008.2
20260508192135 90 196 5.0 10.0 0.00 0.00 0.00 16 1008.3
20260508191413 89 169 1.0 10.0 0.00 0.00 0.00 16 1008.4
20260508190913 89 204 4.0 10.0 0.00 0.00 0.00 16 1008.6
20260508190413 88 226 1.0 6.0 0.00 0.00 0.00 17 1008.7
20260508190135 88 171 2.0 6.0 0.00 0.00 0.00 17 1008.8
20260508185413 88 240 2.0 10.0 0.00 0.00 0.00 17 1008.9
20260508184912 87 234 4.0 10.0 0.00 0.00 0.00 18 1009.0
20260508184633 86 355 1.0 6.0 0.00 0.00 0.00 19 1009.0
20260508184133 86 300 4.0 7.0 0.00 0.00 0.00 19 1009.1
20260508183413 87 306 0.0 7.0 0.00 0.00 0.00 18 1009.2
20260508182912 87 169 4.0 7.0 0.00 0.00 0.00 18 1009.2
20260508182412 86 241 2.0 5.0 0.00 0.00 0.00 19 1009.4
20260508181912 85 155 1.0 6.0 0.00 0.00 0.00 19 1009.5
20260508181412 84 274 2.0 6.0 0.00 0.00 0.00 20 1009.5
20260508180912 85 283 2.0 6.0 0.00 0.00 0.00 19 1009.6
20260508180633 85 228 1.0 4.0 0.00 0.00 0.00 20 1009.7
20260508175908 85 313 0.0 3.0 0.00 0.00 0.00 19 1009.8
20260508175409 85 247 2.0 3.0 0.00 0.00 0.00 19 1009.9
20260508174911 84 226 0.0 3.0 0.00 0.00 0.00 20 1010.0
20260508174411 84 169 0.0 4.0 0.00 0.00 0.00 20 1010.0
20260508173911 83 272 2.0 4.0 0.00 0.00 0.00 21 1010.1
20260508173630 82 247 2.0 4.0 0.00 0.00 0.00 22 1010.1
20260508172911 81 34 2.0 4.0 0.00 0.00 0.00 22 1010.1
20260508172411 81 340 3.0 4.0 0.00 0.00 0.00 21 1010.1
20260508171911 81 250 2.0 5.0 0.00 0.00 0.00 21 1010.2
20260508171639 82 251 1.0 5.0 0.00 0.00 0.00 20 1010.1
20260508170910 82 206 1.0 3.0 0.00 0.00 0.00 21 1010.2
20260508170410 81 306 0.0 3.0 0.00 0.00 0.00 22 1010.2
20260508170128 79 290 1.0 3.0 0.00 0.00 0.00 22 1010.3
20260508165617 80 279 1.0 5.0 0.00 0.00 0.00 22 1010.3
20260508165458 79 63 0.0 3.0 0.00 0.00 0.00 22 1010.3
20260508164409 80 166 0.0 6.0 0.00 0.00 0.00 22 1010.4
20260508163909 79 193 3.0 6.0 0.00 0.00 0.00 24 1010.4
20260508163409 78 128 0.0 4.0 0.00 0.00 0.00 23 1010.4
20260508162906 78 348 1.0 5.0 0.00 0.00 0.00 23 1010.5
20260508162406 79 279 2.0 5.0 0.00 0.00 0.00 23 1010.7
20260508161909 78 151 1.0 4.0 0.00 0.00 0.00 23 1010.5
20260508161410 78 152 1.0 5.0 0.00 0.00 0.00 23 1010.5
20260508160910 77 158 2.0 5.0 0.00 0.00 0.00 24 1010.5
20260508160409 77 192 2.0 5.0 0.00 0.00 0.00 25 1010.5
20260508155909 77 203 3.0 4.0 0.00 0.00 0.00 25 1010.5
20260508155408 77 145 2.0 5.0 0.00 0.00 0.00 25 1010.4
20260508155127 76 171 2.0 5.0 0.00 0.00 0.00 25 1010.4
20260508154857 76 207 2.0 4.0 0.00 0.00 0.00 25 1010.5
20260508153909 76 186 2.0 4.0 0.00 0.00 0.00 25 1010.5
20260508153408 76 149 2.0 4.0 0.00 0.00 0.00 25 1010.5
20260508152908 75 152 2.0 4.0 0.00 0.00 0.00 25 1010.4
20260508152408 75 173 1.0 5.0 0.00 0.00 0.00 26 1010.4
20260508151907 75 199 3.0 5.0 0.00 0.00 0.00 25 1010.4
20260508151408 74 157 2.0 4.0 0.00 0.00 0.00 27 1010.5
20260508150907 74 164 1.0 3.0 0.00 0.00 0.00 26 1010.4
20260508150407 74 159 0.0 4.0 0.00 0.00 0.00 26 1010.5
20260508145904 74 228 2.0 4.0 0.00 0.00 0.00 26 1010.5
20260508145407 74 190 2.0 4.0 0.00 0.00 0.00 26 1010.5
20260508144907 75 100 0.0 0.0 0.00 0.00 0.00 27 1010.5
20260508144407 74 162 0.0 2.0 0.00 0.00 0.00 28 1010.5
20260508143907 73 180 0.0 2.0 0.00 0.00 0.00 28 1010.5
20260508143407 73 162 0.0 3.0 0.00 0.00 0.00 29 1010.4
20260508142906 72 162 1.0 3.0 0.00 0.00 0.00 29 1010.4
20260508142403 71 151 0.0 2.0 0.00 0.00 0.00 30 1010.4
20260508142126 70 173 0.0 2.0 0.00 0.00 0.00 32 1010.4
20260508141403 70 90 0.0 2.0 0.00 0.00 0.00 32 1010.4
20260508141132 69 73 0.0 2.0 0.00 0.00 0.00 33 1010.4
20260508140407 68 86 0.0 1.0 0.00 0.00 0.00 34 1010.4
20260508135905 67 89 0.0 2.0 0.00 0.00 0.00 37 1010.4
20260508135405 67 38 1.0 2.0 0.00 0.00 0.00 38 1010.3
20260508134906 66 41 0.0 3.0 0.00 0.00 0.00 41 1010.3
20260508134406 65 34 0.0 3.0 0.00 0.00 0.00 41 1010.3
20260508133906 64 4 0.0 1.0 0.00 0.00 0.00 43 1010.2
20260508133405 62 30 0.0 1.0 0.00 0.00 0.00 45 1010.2
20260508132905 62 17 0.0 3.0 0.00 0.00 0.00 46 1010.2
20260508132405 61 4 1.0 3.0 0.00 0.00 0.00 45 1010.2
20260508131905 60 16 0.0 2.0 0.00 0.00 0.00 47 1010.1
20260508131406 60 87 0.0 0.0 0.00 0.00 0.00 47 1010.1
20260508130904 59 117 0.0 0.0 0.00 0.00 0.00 48 1010.0
20260508130404 59 110 0.0 0.0 0.00 0.00 0.00 47 1010.0
20260508125904 59 127 0.0 0.0 0.00 0.00 0.00 50 1009.8
20260508125623 59 127 0.0 0.0 0.00 0.00 0.00 48 1009.6
20260508124901 60 7 0.0 0.0 0.00 0.00 0.00 48 1009.5
20260508124404 60 7 0.0 0.0 0.00 0.00 0.00 49 1009.5
20260508123904 61 7 0.0 0.0 0.00 0.00 0.00 44 1009.4
20260508123404 62 358 0.0 0.0 0.00 0.00 0.00 44 1009.4
20260508122904 62 358 0.0 3.0 0.00 0.00 0.00 42 1009.4
20260508122404 61 13 0.0 3.0 0.00 0.00 0.00 44 1009.1
20260508121900 60 344 0.0 3.0 0.00 0.00 0.00 46 1009.1
20260508121400 61 353 0.0 3.0 0.00 0.00 0.00 45 1009.1
20260508120900 62 357 0.0 0.0 0.00 0.00 0.00 42 1009.0
20260508120401 63 30 0.0 1.0 0.00 0.00 0.00 41 1009.1
20260508115904 63 30 0.0 3.0 0.00 0.00 0.00 39 1009.1
20260508115403 64 34 0.0 3.0 0.00 0.00 0.00 39 1009.1
20260508114903 64 38 0.0 3.0 0.00 0.00 0.00 38 1009.0
20260508114627 63 41 0.0 3.0 0.00 0.00 0.00 40 1009.1
20260508113859 63 58 0.0 4.0 0.00 0.00 0.00 39 1008.9
20260508113400 63 41 2.0 4.0 0.00 0.00 0.00 40 1009.0
20260508112859 63 27 0.0 0.0 0.00 0.00 0.00 40 1008.9
20260508112359 63 17 0.0 0.0 0.00 0.00 0.00 40 1009.0
20260508111902 63 10 0.0 0.0 0.00 0.00 0.00 41 1008.9
20260508111402 64 28 0.0 2.0 0.00 0.00 0.00 38 1008.9
20260508110902 64 49 0.0 3.0 0.00 0.00 0.00 38 1008.9
20260508110402 63 31 1.0 3.0 0.00 0.00 0.00 39 1008.8
20260508105857 63 37 0.0 3.0 0.00 0.00 0.00 40 1008.9
20260508105358 63 31 0.0 3.0 0.00 0.00 0.00 41 1008.9
20260508104858 63 35 0.0 1.0 0.00 0.00 0.00 38 1008.9
20260508104358 64 39 0.0 1.0 0.00 0.00 0.00 39 1008.9
20260508103859 64 39 0.0 1.0 0.00 0.00 0.00 38 1008.8
20260508103401 64 66 0.0 1.0 0.00 0.00 0.00 38 1008.8
20260508102901 64 41 0.0 1.0 0.00 0.00 0.00 38 1008.8
20260508102627 64 28 0.0 0.0 0.00 0.00 0.00 39 1008.8
20260508101901 64 37 0.0 1.0 0.00 0.00 0.00 38 1008.8
20260508101401 64 37 0.0 1.0 0.00 0.00 0.00 38 1008.9
20260508100901 64 34 0.0 3.0 0.00 0.00 0.00 37 1008.9
20260508100401 65 32 2.0 3.0 0.00 0.00 0.00 36 1008.8
20260508095901 65 38 0.0 3.0 0.00 0.00 0.00 37 1008.8
20260508095400 65 45 0.0 3.0 0.00 0.00 0.00 36 1008.7
20260508094900 64 41 0.0 1.0 0.00 0.00 0.00 37 1008.7
20260508094849 64 54 0.0 0.0 0.00 0.00 0.00 37 1008.7
20260508094344 65 54 0.0 0.0 0.00 0.00 0.00 37 1008.6
20260508093618 65 54 0.0 1.0 0.00 0.00 0.00 36 1008.7
20260508092900 66 54 0.0 3.0 0.00 0.00 0.00 35 1008.7
20260508092400 66 72 1.0 3.0 0.00 0.00 0.00 34 1008.8
20260508092132 66 38 0.0 3.0 0.00 0.00 0.00 34 1008.9
20260508091356 66 39 0.0 3.0 0.00 0.00 0.00 35 1008.9
20260508090900 66 34 0.0 3.0 0.00 0.00 0.00 35 1008.9
20260508090359 66 42 2.0 3.0 0.00 0.00 0.00 35 1008.9
20260508085859 66 30 0.0 2.0 0.00 0.00 0.00 35 1008.8
20260508085359 66 49 0.0 3.0 0.00 0.00 0.00 35 1008.9
20260508084859 66 38 1.0 3.0 0.00 0.00 0.00 35 1008.9
20260508084358 66 42 1.0 3.0 0.00 0.00 0.00 35 1008.9
20260508083859 66 42 0.0 0.0 0.00 0.00 0.00 35 1009.0
20260508083359 66 48 0.0 0.0 0.00 0.00 0.00 34 1009.0
20260508082858 66 63 0.0 3.0 0.00 0.00 0.00 34 1009.0
20260508082622 66 32 1.0 3.0 0.00 0.00 0.00 35 1009.1
20260508081858 65 38 0.0 3.0 0.00 0.00 0.00 36 1009.1
20260508081358 65 37 0.0 3.0 0.00 0.00 0.00 37 1009.1
20260508080858 65 30 0.0 0.0 0.00 0.00 0.00 39 1009.2
20260508080619 65 140 0.0 0.0 0.00 0.00 0.00 36 1009.4
20260508075858 65 193 0.0 0.0 0.00 0.00 0.00 39 1009.4
20260508075358 65 193 0.0 0.0 0.00 0.00 0.00 36 1009.4
20260508074857 67 193 0.0 2.0 0.00 0.00 0.00 33 1009.2
20260508074357 67 193 0.0 3.0 0.00 0.00 0.00 32 1009.4
20260508073857 67 66 0.0 3.0 0.00 0.00 0.00 32 1009.5
20260508073357 66 48 0.0 1.0 0.00 0.00 0.00 36 1009.5
20260508072857 66 103 0.0 0.0 0.00 0.00 0.00 35 1009.5
20260508072357 66 83 0.0 0.0 0.00 0.00 0.00 35 1009.6
20260508072117 65 58 0.0 0.0 0.00 0.00 0.00 37 1009.4
20260508071353 65 168 0.0 0.0 0.00 0.00 0.00 38 1009.5
20260508071113 66 168 0.0 3.0 0.00 0.00 0.00 35 1009.6
20260508070354 67 154 0.0 3.0 0.00 0.00 0.00 36 1009.6
20260508070117 68 28 0.0 1.0 0.00 0.00 0.00 33 1009.6
20260508065357 67 20 0.0 1.0 0.00 0.00 0.00 35 1009.6
20260508065119 67 31 0.0 4.0 0.00 0.00 0.00 35 1009.5
20260508064356 68 41 2.0 4.0 0.00 0.00 0.00 33 1009.6
20260508063857 67 45 2.0 4.0 0.00 0.00 0.00 33 1009.7
20260508063356 67 41 2.0 3.0 0.00 0.00 0.00 35 1009.8
20260508062856 67 27 2.0 3.0 0.00 0.00 0.00 36 1009.8
20260508062356 66 37 0.0 0.0 0.00 0.00 0.00 37 1009.9
20260508062123 67 38 0.0 0.0 0.00 0.00 0.00 39 1009.8
20260508061617 67 38 0.0 0.0 0.00 0.00 0.00 39 1009.9
20260508060856 67 38 0.0 3.0 0.00 0.00 0.00 35 1009.8
20260508060355 67 38 0.0 3.0 0.00 0.00 0.00 35 1009.8
20260508060123 67 41 0.0 0.0 0.00 0.00 0.00 38 1009.8
20260508055355 67 355 0.0 0.0 0.00 0.00 0.00 35 1009.8
20260508054855 68 355 0.0 0.0 0.00 0.00 0.00 34 1009.8
20260508054355 68 10 0.0 0.0 0.00 0.00 0.00 36 1009.8
20260508054119 69 18 0.0 3.0 0.00 0.00 0.00 33 1009.8